Weather in Tefe

Brazil     3°22′02″S   64°43′09″W
temp.,
°C
wind,
m/s
gust,
m/s
humid.,
%
clouds,
%
prec.,
mm/h
press.,
hPa
HPBL,
m
6 may, thu
thu623:00+23ene119861 0.8 101217
02:00+23ese1310099 8.2 1011113
05:00+22sw11100100 5.3 101137
08:00+24sw129794 7.1 1014240
11:00+28ne227951 0.3 1014561
14:00+29ene1275100 2.5 1009794
17:00+28ese019194 2.4 100945
20:00+24ese019771 7.6 101111
7 may, fri
fri723:00+23ese119892 0.7 101317
02:00+23se0199100 3.5 101123
05:00+22ese1199100 1.6 101126
08:00+24se1396100 2.9 1013198
11:00+27se1490100 3.6 1013457
14:00+27e248694 6.2 1010549
17:00+26sse149590 3.6 1010172
20:00+23se1197100 4.4 101214
8 may, sat
sat823:00+23sse1198100 0.6 101318
02:00+22ssw0099100 3.4 101216
05:00+22s1299100 0.3 101284
08:00+23se1398100 1.4 1014142
11:00+23se1598100 1.4 1015382
14:00+24wsw1297100 2.4 1013209
17:00+24wsw0295100 0.0 1011220
20:00+23s009394 0.1 101212
9 may, sun
sun923:00+23e1197100 0.0 101432
02:00+22e12100100 1.4 101397
05:00+22se11100100 1.2 101336
08:00+22sw02100100 7.9 101584
11:00+26ssw238476 3.0 1015699
14:00+27se139066 5.1 1012624
17:00+26e1195100 4.2 101143
20:00+23ne1198100 6.2 101314
10 may, mon
mon1023:00+23n12100100 3.5 1014100
02:00+22e11100100 5.5 101335
05:00+22se00100100 3.9 101340
08:00+23ne01100100 10.1 101564
11:00+23e1199100 1.9 1015150
14:00+26s019295 5.6 1012611
17:00+25sw139749 3.8 1010125
20:00+23wsw119975 5.7 101223